Budapest Ferihegy, Hungary

2:42 PM CET on December 16, 2017 (GMT +0100)
Ferihegy

Weather History for LHBP - September, 2013

Change the Weather History Date:

Monday, September 9, 2013

  Actual Average Record
Temperature  
Mean Temperature 60 °F -  
Max Temperature 64 °F 65 °F 86 °F (2016)
Min Temperature 57 °F 46 °F 37 °F (2015)
Degree Days  
Heating Degree Days 4    
Growing Degree Days 10 (Base 50)    
Moisture  
Dew Point 52 °F    
Average Humidity 76    
Maximum Humidity 100    
Minimum Humidity 55    
Precipitation  
Precipitation 0.00 in - - ()
Sea Level Pressure  
Sea Level Pressure 30.08 in    
Wind  
Wind Speed 5 mph ()    
Max Wind Speed 12 mph    
Max Gust Speed -    
Visibility 4.6 miles    
Events Fog , Rain    
Averages and records for this station are not official NWS values.
T = Trace of Precipitation, MM = Missing Value Source: Averaged Metar Reports

Daily Weather History Graph

Daily Weather History Graph

Search for Another Location

Airport or City:

Trip Planner

Search our weather history database for the weather conditions in past years. The results will help you decide how hot, cold, wet, or windy it might be!

Date:

Astronomy

Sep. 09, 2013 Rise Set
Actual Time 6:12 AM CEST 7:07 PM CEST
Civil Twilight 5:41 AM CEST 7:38 PM CEST
Nautical Twilight 5:03 AM CEST 8:15 PM CEST
Astronomical Twilight 4:24 AM CEST 8:54 PM CEST
Moon 10:34 AM CEST (9/9) 8:49 PM CEST (9/9)
Length of Visible Light 13h 57m
Length of Day
12h 54m
Waxing Crescent, 16% of the Moon is Illuminated
Sep 9
Waxing Crescent
Sep 12
First Quarter
Sep 19
Full
Sep 27
Last Quarter
Oct 5
New

Hourly Weather History & Observations

Time (CEST) Temp. Dew Point Humidity Pressure Visibility Wind Dir Wind Speed Gust Speed Precip Events Conditions
12:00 AM 60.8 °F 44.6 °F 55% 30.12 in - ESE 4.6 mph - N/A   Clear
12:30 AM 59.0 °F 46.4 °F 63% 30.12 in - Variable 3.5 mph - N/A   Clear
1:00 AM 59.0 °F 46.4 °F 63% 30.12 in - Variable 3.5 mph - N/A   Clear
1:30 AM 59.0 °F 46.4 °F 63% 30.12 in - Variable 3.5 mph - N/A   Clear
2:00 AM 60.8 °F 46.4 °F 59% 30.09 in - East 6.9 mph - N/A   Clear
2:30 AM 60.8 °F 46.4 °F 59% 30.09 in - East 6.9 mph - N/A   Clear
3:00 AM 60.8 °F 46.4 °F 59% 30.09 in - East 6.9 mph - N/A   Clear
3:30 AM 60.8 °F 46.4 °F 59% 30.09 in - East 6.9 mph - N/A   Clear
4:00 AM 60.8 °F 46.4 °F 59% 30.09 in - East 5.8 mph - N/A   Clear
4:30 AM 59.0 °F 44.6 °F 59% 30.06 in - East 4.6 mph - N/A   Clear
5:00 AM 59.0 °F 44.6 °F 59% 30.06 in - ESE 4.6 mph - N/A   Clear
5:30 AM 59.0 °F 44.6 °F 59% 30.04 in - East 10.4 mph - N/A   Clear
6:00 AM 59.0 °F 44.6 °F 59% 30.04 in - ESE 6.9 mph - N/A   Clear
6:30 AM 57.2 °F 42.8 °F 59% 30.04 in - ESE 5.8 mph - N/A   Clear
7:00 AM 59.0 °F 44.6 °F 59% 30.04 in - ESE 5.8 mph - N/A   Clear
7:30 AM 60.8 °F 44.6 °F 55% 30.04 in - ESE 8.1 mph - N/A   Clear
8:00 AM 62.6 °F 46.4 °F 55% 30.04 in - ESE 11.5 mph - N/A   Clear
8:30 AM 62.6 °F 48.2 °F 59% 30.04 in 6.2 mi ESE 9.2 mph - N/A   Mostly Cloudy
9:00 AM 64.4 °F 48.2 °F 56% 30.04 in 6.2 mi ESE 8.1 mph - N/A   Mostly Cloudy
9:30 AM 64.4 °F 48.2 °F 56% 30.06 in 6.2 mi ESE 6.9 mph - N/A   Mostly Cloudy
10:00 AM 64.4 °F 48.2 °F 56% 30.06 in 6.2 mi SSE 4.6 mph - N/A Rain Light Rain
10:30 AM 62.6 °F 53.6 °F 72% 30.06 in 6.2 mi NE 4.6 mph - N/A Rain Light Rain
11:00 AM 62.6 °F 53.6 °F 72% 30.09 in 4.3 mi Variable 2.3 mph - N/A Rain Light Rain
11:30 AM 60.8 °F 57.2 °F 88% 30.09 in 3.1 mi Variable 3.5 mph - N/A Rain Rain
12:00 PM 59.0 °F 53.6 °F 82% 30.09 in 3.1 mi Variable 3.5 mph - N/A Rain Rain
12:30 PM 59.0 °F 55.4 °F 88% 30.09 in 3.7 mi ENE 4.6 mph - N/A Rain Light Rain
1:00 PM 59.0 °F 57.2 °F 94% 30.06 in 3.7 mi East 5.8 mph - N/A Rain Light Rain
1:30 PM 59.0 °F 55.4 °F 88% 30.06 in 6.2 mi Variable 3.5 mph - N/A Rain Light Rain
2:00 PM 59.0 °F 53.6 °F 82% 30.06 in 6.2 mi Variable 3.5 mph - N/A Rain Light Rain
2:30 PM 59.0 °F 55.4 °F 88% 30.09 in 5.0 mi SSE 5.8 mph - N/A Rain Light Rain
3:00 PM 57.2 °F 53.6 °F 88% 30.09 in 6.2 mi SSE 5.8 mph - N/A Rain Light Rain
3:30 PM 59.0 °F 53.6 °F 82% 30.06 in 6.2 mi South 5.8 mph - N/A   Mostly Cloudy
4:00 PM 60.8 °F 55.4 °F 82% 30.06 in 6.2 mi Variable 2.3 mph - N/A   Mostly Cloudy
4:30 PM 59.0 °F 55.4 °F 88% 30.06 in 6.2 mi South 5.8 mph - N/A   Mostly Cloudy
5:00 PM 59.0 °F 55.4 °F 88% 30.09 in 6.2 mi SSE 5.8 mph - N/A   Mostly Cloudy
5:30 PM 59.0 °F 55.4 °F 88% 30.06 in 5.0 mi Variable 3.5 mph - N/A   Mostly Cloudy
6:00 PM 59.0 °F 55.4 °F 88% 30.09 in 5.0 mi South 4.6 mph - N/A   Mostly Cloudy
6:30 PM 59.0 °F 57.2 °F 94% 30.09 in 5.0 mi Variable 3.5 mph - N/A   Mostly Cloudy
7:00 PM 59.0 °F 57.2 °F 94% 30.09 in 5.0 mi SSW 4.6 mph - N/A   Mostly Cloudy
7:30 PM 59.0 °F 57.2 °F 94% 30.09 in 5.0 mi Variable 1.2 mph - N/A   Mostly Cloudy
8:00 PM 59.0 °F 57.2 °F 94% 30.09 in 5.0 mi Variable 1.2 mph - N/A   Mostly Cloudy
8:30 PM 59.0 °F 59.0 °F 100% 30.09 in 5.0 mi Variable 2.3 mph - N/A   Mostly Cloudy
9:00 PM 59.0 °F 59.0 °F 100% 30.09 in 3.7 mi Variable 2.3 mph - N/A   Mostly Cloudy
9:30 PM 59.0 °F 59.0 °F 100% 30.09 in 3.1 mi Variable 3.5 mph - N/A   Mostly Cloudy
10:00 PM 59.0 °F 59.0 °F 100% 30.09 in 1.9 mi South 4.6 mph - N/A   Mostly Cloudy
10:30 PM 59.0 °F 59.0 °F 100% 30.09 in 0.6 mi Variable 3.5 mph - N/A Fog Fog
11:00 PM 59.0 °F 59.0 °F 100% 30.09 in 0.5 mi SW 4.6 mph - N/A Fog Fog
11:30 PM 57.2 °F 57.2 °F 100% 30.09 in 0.2 mi WSW 4.6 mph - N/A Fog Fog